Date,TemperatureHighF,TemperatureAvgF,TemperatureLowF,DewpointHighF,DewpointAvgF,DewpointLowF,HumidityHigh,HumidityAvg,HumidityLow,PressureMaxIn,PressureMinIn,WindSpeedMaxMPH,WindSpeedAvgMPH,GustSpeedMaxMPH,PrecipitationSumIn
2013-1-1,73,66,55,68,63,54,98,91,78,30.06,29.90,4,1,12,0.01
2013-1-2,68,57,49,68,53,44,98,85,64,30.10,29.89,6,3,12,0.01
2013-1-3,49,45,38,45,42,35,96,91,85,30.26,30.09,6,2,12,0.25
2013-1-4,56,44,34,42,36,32,91,75,44,30.33,30.24,6,1,11,0.00
2013-1-5,53,47,40,45,38,32,86,70,49,30.32,30.18,2,0,8,0.00
2013-1-6,56,51,47,47,43,40,87,75,56,30.21,30.10,5,1,11,0.00
2013-1-7,64,50,40,43,41,38,92,71,43,30.25,30.15,5,1,10,0.00
2013-1-8,64,56,46,59,51,41,90,83,76,30.21,30.11,3,0,7,0.00
2013-1-9,70,66,62,67,64,59,97,93,88,30.22,30.12,3,0,6,0.00
2013-1-10,68,66,63,68,65,62,98,96,93,30.22,30.07,6,1,12,0.26
2013-1-11,74,67,62,70,66,62,99,95,86,30.13,30.01,4,0,7,0.27
2013-1-12,74,68,64,69,66,64,99,94,82,30.08,29.96,4,1,9,0.00
2013-1-13,74,69,66,70,68,65,99,95,88,30.00,29.92,9,1,12,0.00
2013-1-14,72,70,68,70,69,67,98,96,91,30.06,29.98,6,1,9,0.00
2013-1-15,74,70,67,71,69,67,98,95,86,30.00,29.90,6,2,10,0.30
2013-1-16,75,66,53,72,64,52,99,94,88,29.94,29.85,7,2,13,0.12
2013-1-17,52,44,41,51,40,34,97,85,73,30.20,29.93,14,3,19,0.14
2013-1-18,60,46,36,40,37,34,93,74,44,30.43,30.21,5,1,14,0.00
2013-1-19,63,48,35,49,41,32,94,78,57,30.35,30.17,5,1,7,0.00
2013-1-20,68,54,44,50,46,42,95,78,44,30.20,30.05,7,1,9,0.00
2013-1-21,67,53,43,48,44,40,96,73,41,30.15,30.03,6,1,9,0.00
2013-1-22,61,48,39,42,35,28,88,64,33,30.29,30.12,7,1,10,0.00
2013-1-23,64,49,34,51,41,31,95,77,48,30.36,30.24,6,1,7,0.00
2013-1-24,74,57,44,59,51,43,99,84,48,30.28,30.16,5,0,7,0.00
2013-1-25,72,57,45,61,53,44,98,87,63,30.25,30.11,5,0,10,0.00
2013-1-26,72,60,48,64,57,48,99,89,66,30.20,30.12,3,0,11,0.00
2013-1-27,72,60,50,60,55,49,97,85,64,30.27,30.19,3,0,8,0.01
2013-1-28,71,63,56,65,60,56,98,92,79,30.26,30.12,2,0,6,0.00
2013-1-29,72,67,62,69,66,61,98,95,89,30.12,29.88,5,1,8,0.07
2013-1-30,74,65,46,72,62,36,97,91,68,30.02,29.60,15,4,19,0.02
2013-1-31,58,46,33,38,33,28,94,66,31,30.25,30.02,8,1,16,0.02
2013-2-1,62,49,37,41,36,29,91,65,37,30.32,30.23,7,1,11,0.00
2013-2-2,61,46,30,49,36,26,94,73,45,30.31,30.11,4,0,7,0.00
2013-2-3,68,54,45,50,43,31,97,72,27,30.19,30.04,6,1,12,0.01
2013-2-4,63,54,41,55,47,38,93,79,47,30.07,29.93,3,0,5,0.00
2013-2-5,65,58,54,62,57,54,98,95,85,29.99,29.90,3,0,5,0.28
2013-2-6,72,61,55,62,58,54,98,89,68,30.08,29.97,3,0,6,0.00
2013-2-7,72,63,55,67,60,54,98,92,72,29.99,29.73,6,1,15,1.26
2013-2-8,69,59,51,62,56,50,99,90,75,30.09,29.88,6,1,11,0.00
2013-2-9,65,54,44,52,47,42,96,80,48,30.20,30.09,5,1,10,0.00
2013-2-10,69,60,46,68,58,45,98,94,89,30.12,29.95,7,2,15,0.00
2013-2-11,74,66,58,71,64,57,97,94,83,30.04,29.96,9,2,13,0.03
2013-2-12,71,65,58,70,63,57,97,94,82,29.98,29.71,7,2,12,0.01
2013-2-13,71,59,48,69,54,47,97,85,57,30.01,29.71,5,1,10,0.05
2013-2-14,55,46,38,47,42,37,96,86,65,30.09,29.95,7,1,8,0.05
2013-2-15,66,50,36,48,42,35,97,77,46,30.10,29.96,5,1,10,0.01
2013-2-16,55,47,33,44,31,20,86,58,31,30.21,29.97,9,2,18,0.00
2013-2-17,55,40,28,33,26,16,88,62,24,30.33,30.21,4,1,8,0.00
2013-2-18,63,50,34,53,43,31,96,76,54,30.27,30.04,8,2,13,0.00
2013-2-19,69,60,40,62,51,34,97,75,42,30.13,29.96,9,2,14,0.79
2013-2-20,60,46,36,39,31,24,83,60,30,30.19,30.04,5,1,11,0.00
2013-2-21,66,59,38,62,50,35,97,75,48,30.06,29.88,5,1,8,0.00
2013-2-22,68,66,63,68,65,62,99,98,96,29.91,29.84,8,1,12,0.25
2013-2-23,68,63,56,68,63,56,99,98,95,29.88,29.72,4,1,9,0.02
2013-2-24,71,61,52,60,56,51,97,85,57,29.93,29.80,6,1,8,1.25
2013-2-25,64,61,58,64,60,57,98,97,90,29.80,29.48,7,1,18,0.65
2013-2-26,66,58,50,66,52,46,99,81,62,29.85,29.45,10,2,18,1.02
2013-2-27,65,53,45,47,45,43,95,77,51,29.96,29.85,5,1,9,0.00
2013-2-28,61,52,44,48,38,31,96,63,33,30.00,29.89,8,1,13,0.00
2013-3-1,56,47,40,40,36,32,85,67,45,30.06,29.93,7,1,10,0.00
2013-3-2,52,41,29,33,28,25,94,64,39,30.10,29.98,10,2,14,0.00
2013-3-3,54,42,33,31,27,24,86,60,33,30.13,30.03,8,2,15,0.00
2013-3-4,63,49,30,57,41,28,91,75,42,30.16,29.97,6,1,13,0.00
2013-3-5,76,64,47,64,59,42,97,82,65,30.06,29.87,8,2,17,0.02
2013-3-6,60,48,39,41,33,28,87,60,32,30.20,30.05,15,2,15,0.02
2013-3-7,64,47,34,45,37,30,92,71,33,30.26,30.14,5,1,10,0.00
2013-3-8,73,54,37,49,41,34,91,67,24,30.24,30.11,4,1,9,0.00
2013-3-9,68,56,43,56,48,41,94,76,54,30.18,30.04,4,0,9,0.00
2013-3-10,71,62,54,62,56,46,93,81,67,30.07,29.94,4,1,12,0.00
2013-3-11,70,60,50,64,58,46,97,93,83,29.94,29.74,8,2,12,0.99
2013-3-12,67,52,43,46,39,35,90,65,33,30.11,29.86,10,3,15,0.00
2013-3-13,68,54,40,40,34,24,84,52,23,30.26,30.11,10,2,16,0.00
2013-3-14,66,50,38,38,29,23,79,49,22,30.35,30.20,6,2,17,0.00
2013-3-15,70,54,37,51,42,32,91,68,34,30.25,30.10,5,1,10,0.00
2013-3-16,77,61,47,61,55,45,98,82,49,30.09,29.95,7,1,15,0.00
2013-3-17,71,62,54,66,60,53,98,94,84,29.98,29.88,6,0,8,0.00
2013-3-18,76,68,61,70,65,60,98,91,80,29.90,29.75,14,1,14,0.01
2013-3-19,78,66,58,64,60,52,97,82,57,29.98,29.82,6,1,10,0.26
2013-3-20,67,59,43,51,38,34,80,48,34,30.01,29.89,6,2,13,0.00
2013-3-21,68,53,40,44,34,25,83,55,20,30.01,29.84,9,1,11,0.00
2013-3-22,68,58,48,53,43,33,78,58,36,29.95,29.84,4,1,11,0.00
2013-3-23,71,63,60,67,57,42,98,81,48,29.85,29.56,4,0,9,0.05
2013-3-24,83,71,53,70,62,36,98,74,43,29.82,29.49,8,2,15,0.15
2013-3-25,62,51,40,37,28,19,72,45,24,30.14,29.82,8,3,15,0.00
2013-3-26,57,46,35,29,27,24,72,50,31,30.30,30.14,8,2,15,0.00
2013-3-27,61,46,31,40,33,27,89,64,31,30.36,30.21,6,1,11,0.00
2013-3-28,69,52,36,44,38,32,89,65,32,30.29,30.18,6,1,11,0.00
2013-3-29,73,56,39,52,44,36,92,68,30,30.28,30.16,4,1,10,0.00
2013-3-30,74,60,46,63,55,44,98,85,57,30.18,30.01,6,1,11,0.00
2013-3-31,77,67,57,69,63,56,98,89,73,30.02,29.84,8,1,11,0.00
2013-4-1,79,70,57,66,59,53,95,72,44,29.98,29.85,7,1,11,0.00
2013-4-2,80,65,51,59,52,48,92,67,34,30.07,29.96,6,1,10,0.00
2013-4-3,62,59,55,60,57,54,97,91,78,30.01,29.75,4,1,14,0.65
2013-4-4,75,66,61,66,62,60,96,88,72,29.88,29.77,4,1,8,0.01
2013-4-5,64,57,47,60,51,46,95,82,61,30.04,29.81,12,2,13,0.01
2013-4-6,71,59,42,58,50,41,98,76,52,30.13,30.02,5,1,9,0.00
2013-4-7,76,64,48,66,60,47,97,86,70,30.11,29.99,6,1,12,0.00
2013-4-8,79,71,58,70,65,57,97,82,65,30.06,29.96,8,1,12,0.00
2013-4-9,81,71,64,69,64,61,95,80,63,30.08,29.95,9,1,11,0.00
2013-4-10,80,70,60,71,65,58,97,85,72,30.02,29.86,12,1,13,0.00
2013-4-11,78,72,68,73,70,66,98,93,83,29.86,29.58,14,2,15,0.86
2013-4-12,78,66,55,68,55,48,97,73,36,29.91,29.67,12,2,12,0.00
2013-4-13,82,66,48,60,52,46,91,65,33,29.99,29.83,8,1,9,0.00
2013-4-14,66,63,60,64,60,56,97,91,74,29.90,29.61,13,1,13,1.48
2013-4-15,82,68,60,73,65,59,97,90,71,30.00,29.80,5,0,7,0.00
2013-4-16,84,73,64,72,68,63,98,85,64,30.07,29.98,9,1,9,0.00
2013-4-17,83,73,67,70,67,65,97,83,58,30.09,29.97,9,0,9,0.00
2013-4-18,81,72,63,73,68,62,97,89,75,29.97,29.84,11,1,11,0.00
2013-4-19,77,62,50,74,60,48,96,92,77,30.09,29.78,15,2,16,0.54
2013-4-20,69,56,44,49,43,36,96,67,36,30.18,30.05,15,2,17,0.01
2013-4-21,79,62,46,55,47,42,89,61,32,30.15,30.04,10,1,12,0.00
2013-4-22,75,66,60,64,58,49,91,75,57,30.09,30.01,8,1,8,0.00
2013-4-23,78,67,58,64,60,56,95,80,56,30.09,29.99,8,1,10,0.00
2013-4-24,79,68,58,69,65,57,98,90,68,30.09,29.99,8,0,10,0.00
2013-4-25,83,70,62,68,61,45,97,75,48,30.20,30.05,11,2,11,0.00
2013-4-26,84,69,56,58,50,41,86,53,32,30.24,30.15,8,1,8,0.00
2013-4-27,78,68,56,69,64,54,96,86,71,30.18,30.01,7,0,9,0.00
2013-4-28,82,73,67,70,68,66,98,86,63,30.04,29.90,5,0,9,0.00
2013-4-29,82,70,66,72,67,64,97,90,63,29.94,29.85,5,1,7,0.25
2013-4-30,83,72,62,72,67,61,98,86,59,29.92,29.85,8,1,9,0.01
2013-5-1,72,69,68,68,66,65,96,91,84,29.93,29.83,11,1,11,0.06
2013-5-2,77,70,66,70,65,62,95,86,74,29.94,29.83,9,1,9,0.20
2013-5-3,72,68,65,66,64,63,96,88,78,29.88,29.74,14,1,16,0.13
2013-5-4,70,57,48,64,47,41,97,73,36,29.87,29.76,15,3,17,0.57
2013-5-5,77,59,44,65,48,41,95,70,37,29.91,29.73,11,1,14,0.02
2013-5-6,71,60,44,55,49,42,94,71,46,29.96,29.85,9,1,11,0.00
2013-5-7,76,66,54,62,58,52,93,76,54,29.98,29.88,8,1,10,0.00
2013-5-8,81,68,53,69,61,52,98,82,52,30.05,29.95,8,1,12,0.00
2013-5-9,82,70,58,70,64,57,98,81,50,30.09,30.00,7,1,8,0.00
2013-5-10,79,71,61,70,66,60,97,87,72,30.07,29.88,11,1,11,0.00
2013-5-11,74,68,61,69,66,59,98,92,82,29.99,29.89,5,0,6,0.15
2013-5-12,82,72,64,64,59,49,98,69,34,30.04,29.91,10,1,11,0.00
2013-5-13,80,66,52,54,46,38,85,54,25,30.19,30.04,10,2,12,0.00
2013-5-14,81,67,51,58,52,46,87,62,35,30.23,30.10,10,1,10,0.00
2013-5-15,85,71,56,64,58,52,95,68,33,30.17,29.99,8,1,10,0.00
2013-5-16,80,73,66,72,68,63,94,84,65,30.02,29.94,9,1,11,0.00
2013-5-17,82,75,68,73,70,67,97,86,68,30.03,29.93,8,1,8,0.00
2013-5-18,85,76,70,73,70,68,97,84,62,30.05,29.97,8,1,9,0.00
2013-5-19,86,76,66,73,70,65,98,85,62,30.02,29.94,8,1,8,0.00
2013-5-20,88,78,70,76,72,68,97,82,54,30.01,29.90,8,1,9,0.00
2013-5-21,88,78,66,74,70,65,98,79,52,29.96,29.84,8,1,8,0.00
2013-5-22,88,76,65,74,70,64,97,82,60,29.94,29.82,8,1,8,0.00
2013-5-23,92,79,67,76,70,62,98,76,39,29.97,29.88,9,1,10,0.00
2013-5-24,92,80,70,71,63,52,94,59,32,30.09,29.93,12,2,15,0.00
2013-5-25,91,75,59,58,54,49,79,50,25,30.17,30.08,6,1,9,0.00
2013-5-26,88,74,62,73,66,56,93,76,49,30.16,30.07,8,1,9,0.00
2013-5-27,90,76,63,71,66,55,97,73,34,30.13,30.02,8,1,8,0.00
2013-5-28,88,76,64,75,69,61,93,80,60,30.06,29.99,9,1,10,0.00
2013-5-29,88,78,68,76,71,64,91,79,64,30.04,29.96,13,1,13,0.00
2013-5-30,90,81,72,75,72,68,92,75,56,30.04,29.95,7,1,12,0.00
2013-5-31,88,80,72,75,72,69,93,79,62,30.04,29.94,12,1,14,0.00
2013-6-1,89,81,74,77,74,71,93,80,65,29.98,29.90,10,1,12,0.00
2013-6-2,91,80,70,77,73,69,96,81,61,29.93,29.80,8,1,9,0.00
2013-6-3,90,80,71,77,73,68,93,81,58,29.87,29.78,5,0,7,0.00
2013-6-4,91,81,72,78,75,70,96,81,62,29.90,29.84,10,1,10,0.00
2013-6-5,90,82,75,78,74,72,92,79,59,29.90,29.80,9,1,9,0.00
2013-6-6,87,78,71,74,72,69,96,83,61,29.85,29.63,14,2,14,0.07
2013-6-7,88,78,68,74,71,67,95,79,59,29.84,29.68,13,1,15,0.00
2013-6-8,91,80,69,77,73,67,95,79,57,29.98,29.83,7,1,9,0.02
2013-6-9,78,73,71,76,72,70,97,96,91,30.03,29.91,8,1,8,3.81
2013-6-10,81,76,72,77,74,71,97,92,78,30.04,29.93,5,0,5,0.24
2013-6-11,91,81,72,81,76,71,98,85,69,30.04,29.94,8,1,8,0.00
2013-6-12,95,83,72,82,76,71,98,81,56,30.02,29.93,5,1,8,0.00
2013-6-13,93,84,75,81,76,72,96,78,59,29.96,29.79,11,1,12,0.00
2013-6-14,95,85,79,79,75,69,92,74,46,29.88,29.76,9,1,11,0.00
2013-6-15,93,83,73,81,75,67,86,77,63,29.97,29.85,10,1,10,0.00
2013-6-16,91,84,78,81,78,75,93,82,69,30.01,29.93,8,1,9,0.00
2013-6-17,90,82,71,80,77,70,97,85,70,29.98,29.90,14,1,14,0.84
2013-6-18,89,81,72,80,75,71,95,83,65,29.96,29.84,10,1,12,0.97
2013-6-19,90,79,71,78,73,70,97,83,56,29.97,29.85,12,0,12,0.26
2013-6-20,90,79,72,80,74,70,97,86,66,30.03,29.93,6,0,6,0.66
2013-6-21,88,78,71,79,74,70,97,88,68,30.06,29.98,8,0,8,0.13
2013-6-22,90,79,71,77,73,69,95,81,61,30.06,29.94,7,1,7,0.00
2013-6-23,87,78,73,78,74,72,97,89,72,30.08,29.97,6,0,7,1.44
2013-6-24,91,82,74,81,75,71,97,82,62,30.11,30.02,7,0,8,0.00
2013-6-25,89,80,72,79,74,70,95,84,68,30.08,29.96,2,0,6,0.00
2013-6-26,92,81,71,80,75,70,97,82,62,30.03,29.92,8,0,9,0.03
2013-6-27,92,84,74,82,77,72,95,81,63,29.95,29.83,9,1,9,0.00
2013-6-28,94,83,75,82,77,70,96,84,58,29.86,29.72,16,1,16,0.02
2013-6-29,88,81,74,80,76,70,97,86,70,29.72,29.62,6,0,10,0.18
2013-6-30,85,78,71,78,74,69,97,89,77,29.71,29.63,10,0,11,0.02
2013-7-1,91,80,69,78,72,68,98,79,55,29.84,29.70,9,1,10,0.00
2013-7-2,91,81,71,74,72,68,94,75,48,29.94,29.82,7,1,8,0.00
2013-7-3,77,73,71,74,72,70,98,96,89,29.99,29.90,4,0,7,1.36
2013-7-4,78,75,73,75,73,72,98,95,86,29.99,29.86,15,2,15,3.76
2013-7-5,78,73,69,75,72,68,98,95,88,30.05,29.96,7,0,10,3.11
2013-7-6,79,75,70,77,73,69,98,96,86,30.01,29.94,6,0,6,2.74
2013-7-7,88,79,72,80,75,72,98,90,75,30.06,29.98,7,0,9,0.00
2013-7-8,91,80,74,81,76,73,97,87,64,30.11,30.04,7,0,8,0.00
2013-7-9,91,80,70,79,74,69,97,84,64,30.12,30.01,4,0,7,0.00
2013-7-10,91,78,72,80,74,70,97,90,63,30.04,29.91,8,0,9,0.26
2013-7-11,77,74,73,76,73,72,98,97,92,29.96,29.83,6,0,6,3.08
2013-7-12,91,80,72,80,75,71,98,84,63,29.86,29.77,6,0,8,0.02
2013-7-13,90,77,70,80,73,68,96,89,66,29.93,29.81,4,0,11,0.49
2013-7-14,83,76,69,79,74,68,98,91,82,29.98,29.86,5,1,9,0.15
2013-7-15,91,80,75,78,75,72,96,84,61,30.08,29.98,6,1,10,0.00
2013-7-16,92,80,74,79,74,72,94,83,59,30.12,30.03,8,1,9,0.02
2013-7-17,94,82,73,78,74,71,95,78,51,30.15,30.02,8,1,8,0.01
2013-7-18,91,81,72,80,74,69,92,80,61,30.07,29.94,9,1,9,0.00
2013-7-19,91,80,73,78,74,71,95,83,62,30.02,29.90,6,0,7,0.00
2013-7-20,86,79,74,80,76,72,97,90,76,29.98,29.88,10,1,11,0.20
2013-7-21,90,80,74,78,75,72,95,86,64,30.01,29.93,11,1,11,0.03
2013-7-22,86,76,72,80,74,71,97,94,79,30.03,29.95,9,0,11,1.29
2013-7-23,91,79,71,81,75,69,99,88,65,29.97,29.86,13,1,16,0.44
2013-7-24,89,80,72,81,76,71,98,89,72,29.88,29.80,9,0,10,0.30
2013-7-25,89,79,73,81,75,70,96,88,73,29.93,29.79,7,0,10,0.25
2013-7-26,92,82,73,79,75,70,95,81,52,29.98,29.89,7,0,7,0.00
2013-7-27,87,77,73,81,75,70,97,93,78,29.93,29.85,13,0,13,0.82
2013-7-28,88,79,71,80,75,70,97,89,72,29.95,29.83,8,1,11,0.22
2013-7-29,92,83,75,82,77,74,97,85,67,30.06,29.91,8,0,10,0.00
2013-7-30,92,83,75,81,77,74,97,84,62,30.10,30.00,8,0,9,0.00
2013-7-31,92,81,76,81,77,74,96,90,66,30.04,29.93,7,0,8,0.07
2013-8-1,86,80,76,80,77,75,96,90,78,29.95,29.86,7,0,8,0.01
2013-8-2,92,82,74,82,77,72,97,86,67,29.97,29.86,7,0,8,0.00
2013-8-3,92,83,76,82,78,75,97,85,69,30.00,29.91,7,0,8,0.11
2013-8-4,96,84,75,83,77,74,97,83,53,30.00,29.89,9,0,9,0.15
2013-8-5,95,83,73,82,76,72,96,83,50,29.96,29.86,8,0,8,0.00
2013-8-6,94,82,73,80,76,72,96,83,56,29.95,29.84,10,1,13,0.15
2013-8-7,95,80,71,82,75,70,96,88,60,29.92,29.83,7,0,8,0.05
2013-8-8,92,79,74,82,76,73,96,90,68,29.92,29.86,6,0,8,0.01
2013-8-9,93,83,75,82,77,74,97,84,59,30.00,29.89,8,0,8,0.01
2013-8-10,92,80,74,79,75,73,96,88,59,30.04,29.96,7,0,9,0.10
2013-8-11,93,82,74,82,77,73,97,85,64,30.09,30.00,8,0,8,0.01
2013-8-12,94,81,75,82,76,74,96,87,62,30.06,29.97,8,0,9,0.14
2013-8-13,89,77,73,80,75,72,98,93,73,29.99,29.87,8,0,8,0.32
2013-8-14,90,78,73,79,75,71,97,89,67,29.90,29.82,6,0,8,0.18
2013-8-15,89,79,73,79,75,72,97,88,66,29.92,29.83,9,0,10,0.00
2013-8-16,83,76,73,77,74,72,97,94,81,29.95,29.85,5,0,5,0.38
2013-8-17,74,72,69,73,71,68,98,97,95,29.98,29.88,8,1,8,3.63
2013-8-18,84,75,70,80,73,70,99,95,82,30.00,29.93,6,0,6,0.59
2013-8-19,90,79,70,82,76,69,99,89,69,30.00,29.91,8,0,8,0.00
2013-8-20,89,77,73,80,75,72,97,92,68,30.04,29.92,7,0,8,0.16
2013-8-21,92,77,70,81,73,69,98,89,65,30.08,29.99,5,0,8,0.01
2013-8-22,89,80,72,80,76,70,95,85,72,30.05,29.91,7,0,8,0.00
2013-8-23,84,76,72,78,74,71,97,93,82,29.97,29.89,7,0,7,0.74
2013-8-24,86,78,72,79,75,71,98,91,75,30.06,29.93,4,0,5,0.01
2013-8-25,87,78,72,79,74,71,98,89,73,30.13,30.04,8,1,9,0.97
2013-8-26,90,79,71,73,69,65,88,71,47,30.14,30.02,8,1,9,0.00
2013-8-27,91,78,66,75,69,64,93,76,51,30.06,29.94,5,0,6,0.00
2013-8-28,92,80,69,77,72,67,95,78,57,30.00,29.92,5,0,5,0.00
2013-8-29,92,81,72,77,73,69,93,77,53,29.99,29.89,7,0,8,0.00
2013-8-30,93,82,72,80,74,70,92,78,56,29.95,29.82,8,0,9,0.00
2013-8-31,92,80,75,81,76,73,96,87,70,29.88,29.78,6,0,6,0.02
2013-9-1,93,79,71,82,75,70,97,88,67,29.87,29.80,8,0,9,0.00
2013-9-2,89,78,73,81,74,71,97,90,67,29.93,29.83,6,0,7,0.30
2013-9-3,88,75,71,81,73,70,98,95,76,29.93,29.83,6,0,7,1.59
2013-9-4,91,79,70,81,75,69,99,89,67,30.02,29.90,6,0,6,0.01
2013-9-5,93,81,72,80,75,71,98,83,62,30.05,29.96,6,0,8,0.00
2013-9-6,94,81,72,76,73,70,96,78,52,30.03,29.91,6,0,6,0.00
2013-9-7,91,80,71,79,73,68,93,80,54,29.98,29.90,10,0,10,0.00
2013-9-8,94,80,70,76,72,68,96,77,50,29.94,29.86,5,0,6,0.00
2013-9-9,94,80,69,76,72,67,97,77,51,29.99,29.89,6,0,6,0.00
2013-9-10,92,81,73,77,73,70,94,77,52,30.07,29.96,7,0,7,0.00
2013-9-11,93,81,73,74,71,70,91,73,49,30.07,29.96,5,1,8,0.00
2013-9-12,94,82,74,77,74,71,91,78,53,29.98,29.84,4,0,7,0.00
2013-9-13,94,81,71,75,72,68,94,76,47,29.87,29.74,5,1,7,0.00
2013-9-14,90,79,72,74,70,67,91,75,54,29.92,29.77,3,1,6,0.00
2013-9-15,94,80,68,77,71,64,89,75,53,30.00,29.92,3,0,6,0.00
2013-9-16,92,79,74,80,74,72,95,86,62,30.01,29.93,6,1,9,0.01
2013-9-17,92,78,72,81,74,70,97,89,63,30.01,29.91,7,0,7,0.74
2013-9-18,87,78,71,76,73,70,97,85,66,30.03,29.94,8,1,8,0.07
2013-9-19,90,79,70,75,72,67,92,80,58,30.03,29.93,6,0,7,0.01
2013-9-20,90,80,70,80,74,68,95,85,69,29.97,29.81,11,1,11,0.01
2013-9-21,82,77,72,76,74,71,97,91,80,29.81,29.67,11,1,11,1.88
2013-9-22,77,73,69,74,72,68,97,96,91,29.74,29.66,7,1,8,0.55
2013-9-23,89,79,73,80,75,71,96,88,73,29.83,29.71,7,1,7,0.43
2013-9-24,84,77,72,79,75,70,97,93,82,29.84,29.71,10,0,17,0.58
2013-9-25,89,77,71,81,74,70,98,89,64,29.74,29.66,6,0,8,0.01
2013-9-26,84,74,67,74,70,66,98,87,65,29.90,29.73,9,1,9,0.00
2013-9-27,85,73,64,68,65,62,96,76,52,29.99,29.88,10,1,10,0.00
2013-9-28,84,73,60,69,64,58,94,75,54,30.03,29.94,6,1,10,0.00
2013-9-29,86,73,62,70,65,58,91,77,57,30.00,29.88,7,0,7,0.00
2013-9-30,88,74,68,73,68,63,91,81,60,29.94,29.86,5,0,6,0.00
2013-10-1,88,76,66,76,70,65,95,84,61,30.01,29.91,7,0,7,0.00
2013-10-2,78,74,69,75,71,68,97,93,87,30.01,29.94,4,0,4,0.29
2013-10-3,88,76,66,77,71,65,98,88,63,30.02,29.93,5,0,7,0.01
2013-10-4,89,76,69,77,73,68,96,91,63,30.02,29.93,4,0,8,0.00
2013-10-5,90,80,72,80,75,71,97,87,71,29.99,29.89,9,1,10,0.00
2013-10-6,77,72,70,75,71,68,98,96,92,29.89,29.74,3,0,11,1.68
2013-10-7,80,70,62,70,64,57,98,81,58,29.89,29.73,13,2,13,0.08
2013-10-8,84,70,57,70,63,54,93,78,60,29.94,29.85,9,1,9,0.00
2013-10-9,78,69,63,69,65,62,94,86,71,30.06,29.93,8,1,9,0.00
2013-10-10,85,70,58,71,65,57,98,86,59,30.05,29.94,5,0,5,0.00
2013-10-11,86,70,61,70,65,60,98,86,46,30.01,29.90,7,0,7,0.01
2013-10-12,86,73,63,71,65,62,97,80,46,30.02,29.93,9,1,9,0.00
2013-10-13,85,72,62,67,64,61,95,76,47,30.09,29.99,11,1,11,0.00
2013-10-14,86,73,62,69,64,60,93,76,50,30.06,29.94,7,1,10,0.00
2013-10-15,82,70,62,70,65,60,96,84,62,30.01,29.90,5,0,6,0.00
2013-10-16,84,70,59,71,65,58,97,84,58,29.97,29.86,5,0,5,0.00
2013-10-17,84,73,63,75,69,62,98,89,67,29.91,29.82,6,0,7,0.16
2013-10-18,77,70,66,70,67,64,96,90,78,29.94,29.84,8,1,9,0.00
2013-10-19,73,68,64,68,64,59,96,90,77,29.93,29.84,11,1,11,0.01
2013-10-20,78,66,58,63,59,56,95,80,58,29.98,29.89,12,1,12,0.00
2013-10-21,72,66,61,66,61,57,94,86,78,30.00,29.89,5,0,6,0.00
2013-10-22,76,67,62,68,64,59,97,90,71,29.92,29.80,6,0,7,0.06
2013-10-23,74,62,52,59,51,43,92,69,37,30.06,29.86,12,2,12,0.00
2013-10-24,75,59,46,55,49,43,90,71,44,30.17,30.04,5,0,5,0.00
2013-10-25,69,57,49,52,45,36,94,67,37,30.30,30.13,11,2,14,0.00
2013-10-26,71,54,42,48,42,36,92,65,37,30.25,30.10,7,1,7,0.00
2013-10-27,76,59,43,57,49,41,94,74,42,30.12,30.02,5,0,6,0.00
2013-10-28,80,63,51,61,56,49,96,79,45,30.17,30.05,7,0,8,0.00
2013-10-29,80,65,52,65,59,51,97,83,57,30.22,30.12,5,0,5,0.00
2013-10-30,81,67,56,71,64,54,97,89,71,30.18,30.05,5,0,6,0.01
2013-10-31,80,71,61,74,69,60,98,91,81,30.05,29.83,12,1,12,0.12
2013-11-1,76,72,62,74,70,61,97,94,89,29.83,29.72,8,1,10,0.26
2013-11-2,77,63,52,61,53,46,97,73,41,30.03,29.81,9,1,11,0.01
2013-11-3,70,56,47,47,45,42,89,70,38,30.17,30.02,9,1,11,0.00
2013-11-4,76,62,47,58,51,44,89,70,50,30.21,30.13,7,1,8,0.00
2013-11-5,76,65,56,61,54,46,77,68,56,30.23,30.10,11,2,13,0.00
2013-11-6,80,68,60,68,62,53,95,83,65,30.13,30.01,6,0,7,0.00
2013-11-7,69,61,50,68,57,42,97,89,74,30.15,29.97,13,2,16,0.18
2013-11-8,66,51,44,45,41,37,85,69,39,30.22,30.10,9,2,12,0.00
2013-11-9,73,58,44,61,51,41,92,79,61,30.20,30.10,5,0,7,0.00
2013-11-10,76,62,52,63,56,50,95,83,56,30.20,30.09,8,0,8,0.00
2013-11-11,78,60,47,53,50,45,94,72,37,30.18,30.06,5,0,6,0.00
2013-11-12,73,58,43,53,46,26,89,67,45,30.32,30.06,21,2,21,0.00
2013-11-13,56,43,35,31,26,22,79,52,28,30.41,30.30,15,3,15,0.00
2013-11-14,67,49,30,53,40,25,84,71,56,30.36,30.13,7,0,7,0.00
2013-11-15,68,61,56,64,58,49,95,89,75,30.13,29.96,7,0,7,0.01
2013-11-16,74,66,59,67,63,58,97,90,78,30.06,29.96,6,0,7,0.00
2013-11-17,80,71,66,75,69,65,97,94,84,29.96,29.88,7,1,10,0.01
2013-11-18,73,69,58,73,66,44,98,92,60,29.98,29.87,6,0,6,2.03
2013-11-19,67,56,47,49,44,41,85,66,45,30.04,29.93,12,2,14,0.00
2013-11-20,72,58,47,60,52,43,87,78,65,30.12,29.98,8,1,9,0.00
2013-11-21,68,62,55,63,58,51,91,85,81,30.19,30.10,7,1,8,0.00
2013-11-22,73,66,62,67,63,60,95,90,82,30.20,30.09,6,0,7,0.00
2013-11-26,59,50,47,58,48,46,97,96,94,29.77,29.60,14,2,14,3.60
2013-11-27,49,42,32,45,35,27,95,77,53,30.28,29.77,19,3,22,0.01
2013-11-28,51,38,28,34,28,24,92,69,36,30.40,30.27,9,1,9,0.00
2013-11-29,61,43,30,37,33,28,92,71,35,30.46,30.34,9,1,9,0.00
2013-11-30,69,49,32,51,41,30,94,76,37,30.38,30.20,6,0,6,0.00
2013-12-1,67,54,45,56,49,42,96,85,64,30.20,29.96,5,0,5,0.00
2013-12-2,69,56,48,57,52,47,100,86,62,29.96,29.76,7,0,7,0.00
2013-12-3,78,63,50,69,60,49,99,90,71,29.83,29.74,8,0,8,0.00
2013-12-4,75,68,63,71,67,62,99,95,85,29.94,29.82,8,0,8,0.53
2013-12-5,77,72,70,74,71,69,99,96,90,30.02,29.92,9,1,12,0.02
2013-12-6,78,73,69,74,71,68,98,94,86,30.04,29.94,11,1,11,0.00
2013-12-7,72,55,50,71,52,48,97,91,81,30.19,30.03,12,3,14,0.02
2013-12-8,68,61,50,68,60,49,99,98,96,30.15,30.01,5,0,6,0.01
2013-12-9,72,68,65,72,67,65,99,98,97,30.04,29.97,5,0,6,0.12
2013-12-10,66,52,40,65,49,37,99,90,73,30.27,29.96,15,2,18,0.05
2013-12-11,64,49,38,50,42,34,91,78,57,30.31,30.21,7,1,7,0.00
2013-12-12,60,48,36,44,35,29,79,61,36,30.40,30.27,12,2,13,0.00
2013-12-13,61,48,34,48,37,26,85,67,43,30.30,29.99,7,1,7,0.00
2013-12-14,72,64,53,70,61,48,97,91,73,30.01,29.77,9,0,9,0.15
2013-12-15,61,46,34,58,42,32,95,85,70,30.21,29.84,14,3,15,0.03
2013-12-16,61,44,33,43,36,31,94,78,43,30.25,30.17,8,1,8,0.00
2013-12-17,66,48,35,45,39,33,93,75,39,30.27,30.14,5,0,6,0.00
2013-12-18,65,49,38,42,39,34,95,71,34,30.31,30.20,9,1,10,0.00
2013-12-19,66,51,36,55,46,34,96,84,60,30.23,30.08,6,0,7,0.00
2013-12-20,72,60,48,66,58,47,98,93,80,30.11,29.98,5,0,6,0.00
2013-12-21,71,67,62,70,66,62,98,97,93,29.98,29.85,8,1,9,0.02
2013-12-22,75,70,56,73,68,55,98,96,90,30.03,29.86,15,3,15,1.73
2013-12-23,56,51,42,55,49,36,98,93,80,30.28,30.00,18,3,18,1.69
2013-12-24,54,41,32,36,32,29,92,73,43,30.39,30.26,10,2,15,0.00
2013-12-25,56,43,31,40,33,26,87,69,42,30.32,30.19,7,1,7,0.00
2013-12-26,60,49,41,49,43,39,92,78,66,30.25,30.16,10,2,12,0.00
2013-12-27,60,53,45,46,41,37,81,66,53,30.30,30.19,9,2,11,0.00
2013-12-28,57,52,48,57,50,43,100,93,68,30.21,29.80,8,1,10,2.22
2013-12-29,57,50,41,57,48,40,98,94,85,30.06,29.80,9,1,10,0.00
2013-12-30,60,49,39,54,47,38,98,92,76,30.20,30.05,4,0,4,0.00
2013-12-31,51,48,46,50,45,42,94,89,84,30.34,30.18,8,2,9,0.00
2014-1-1,60,52,46,54,49,43,96,91,79,30.27,29.99,4,0,5,0.07
2014-1-2,59,51,36,58,48,28,100,88,68,30.17,29.82,18,2,18,0.11